Overview Statistics Trail Chart Weather Telemetry Raw packets
 

This is the latest recevied weather packets stored in our database for station/object EA3AGY-13. If no packets are shown the sender has not sent any weather packets the latest 10 day(s).

<< 1 2 3 4 5 >>
Time Temp. Humidity Pressure Rain* Wind** Luminosity Snow
1788542940 23.33° C 100% 1023.9 hPa 0 mm - - -
1788541101 24.44° C 13% 1023.9 hPa 0 mm - - -
1788540500 25° C 14% 1023.7 hPa 0 mm - - -
1788539295 -28.33° C 7% 1023.7 hPa 0 mm - - -
1788536885 -24.44° C 9% 1023.6 hPa 0 mm - - -
1788535078 -22.78° C 9% 1023.6 hPa 0 mm - - -
1788534477 -24.44° C 6% 1023.5 hPa 0 mm - - -
1788532671 -25.56° C 9% 1023.5 hPa 0 mm - - -
1788530260 -26.67° C 12% 1023.6 hPa 0 mm - - -
1788529657 -27.22° C 12% 1023.7 hPa 0 mm - - -
1788529057 -27.22° C 10% 1023.7 hPa 0 mm - - -
1788527850 -27.78° C 9% 1023.7 hPa 0 mm - - -
1788527247 -28.33° C 7% 1023.7 hPa 0 mm - - -
1788524838 27.22° C 12% 1023.8 hPa 0 mm - - -
1788523633 27.22° C 11% 1024 hPa 0 mm - - -
1788523031 26.67° C 13% 1024 hPa 0 mm - - -
1788521829 26.67° C 16% 1024 hPa 0 mm - - -
1788521227 26.67° C 17% 1024 hPa 0 mm - - -
1788519418 26.11° C 20% 1023.9 hPa 0 mm - - -
1788517609 25.56° C 20% 1024 hPa 0 mm - - -
1788516404 25° C 21% 1024.1 hPa 0 mm - - -
1788513995 23.89° C 23% 1023.9 hPa 0 mm - - -
1788513393 23.89° C 25% 1023.9 hPa 0 mm - - -
1788512791 23.33° C 23% 1023.9 hPa 0 mm - - -
1788512188 23.33° C 21% 1023.9 hPa 0 mm - - -

* Rain since midnight (hover to see other rain measurements)
** Current wind speed in m/s (hover to see current wind gust speed)